Date String (YYYY-MM-DD hh:mm:ss) UTC,Instrument flags,absolute air pressure of the measurement (hPa),sample flow rate (lpm),inlet stack bypass flow (lpm),air temperature of the measurement (°C),ambient temperature measured by the external sensor (°C),aerosol sample conditioner tube jacket temperature (°C),OPC LED temperature (°C),internal box temperature (°C),relative humidity of the measurement (%),span deviation,mass concentration of particles derived from Lorenz-Mie calculation of OPC scattering (μg/m³),mass concentration of particles derived from Lorenz-Mie calculation of OPC scattering (μg/m³),mass concentration of particles derived from Lorenz-Mie calculation of OPC scattering (μg/m³)
DateTimeUTC,F1_M11,P_M11,Q1_M11,Q2_M11,T1_M11,T2_M11,T3_M11,T4_M11,T5_M11,U1_M11,ZSPAN_M11,X2_M11,X0_M11,X1_M11
2023-08-11 09:00:00,SystemResetWarning,0829.7,5.00,000.00,029.4,027.7,000.0,037.9,031.0,20.2,0000.0,0004.55,0008.02,0004.07
2023-08-11 09:01:00,SystemResetWarning,0829.7,4.99,000.00,029.4,027.9,000.0,037.9,031.0,20.2,0000.0,0004.52,0007.85,0004.06
2023-08-11 09:02:00,SystemResetWarning,0829.7,4.99,000.00,029.4,028.0,000.0,038.0,031.1,20.2,0000.0,0004.50,0007.82,0004.04
2023-08-11 09:03:00,SystemResetWarning,0829.7,5.00,000.00,029.4,028.1,000.0,038.0,031.1,20.2,0000.0,0004.47,0007.81,0004.04
2023-08-11 09:04:00,SystemResetWarning,0829.7,5.01,000.00,029.5,028.2,000.0,038.0,031.2,20.1,0000.0,0004.47,0007.91,0004.04
2023-08-11 09:05:00,SystemResetWarning,0829.8,5.00,000.00,029.5,028.2,000.0,038.0,031.2,20.2,0000.0,0004.49,0008.11,0004.05
2023-08-11 09:06:00,SystemResetWarning,0829.8,5.00,000.00,029.5,028.3,000.0,038.0,031.2,20.3,0000.0,0004.52,0008.19,0004.06
2023-08-11 09:07:00,SystemResetWarning,0829.8,4.99,000.00,029.6,028.4,000.0,038.1,031.3,20.2,0000.0,0004.51,0008.25,0004.06
2023-08-11 09:08:00,SystemResetWarning,0829.8,4.99,000.00,029.6,028.4,000.0,038.1,031.3,20.2,0000.0,0004.49,0008.15,0004.05
2023-08-11 09:09:00,SystemResetWarning,0829.8,4.99,000.00,029.6,028.2,000.0,038.1,031.3,20.1,0000.0,0004.47,0008.15,0004.03
2023-08-11 09:10:00,SystemResetWarning,0829.7,5.00,000.00,029.6,026.4,000.0,038.0,031.1,20.1,0000.0,0004.47,0008.36,0004.02
2023-08-11 09:11:00,SystemResetWarning,0829.7,5.00,000.00,029.5,025.5,000.0,037.8,030.9,20.2,0000.0,0004.46,0008.40,0004.00
2023-08-11 09:12:00,SystemResetWarning,0829.7,5.02,000.00,029.4,025.6,000.0,037.8,030.7,20.1,0000.0,0004.48,0008.52,0004.00
2023-08-11 09:13:00,SystemResetWarning,0829.7,5.00,000.00,029.4,025.9,000.0,037.9,030.6,20.0,0000.0,0004.49,0008.56,0003.98
2023-08-11 09:14:00,SystemResetWarning,0829.7,5.00,000.00,029.3,026.3,000.0,037.9,030.7,20.2,0000.0,0004.50,0008.56,0003.97
2023-08-11 09:15:00,SystemResetWarning,0829.7,5.01,000.00,029.3,026.7,000.0,037.9,030.8,20.3,0000.0,0004.52,0008.57,0003.96
2023-08-11 09:16:00,SystemResetWarning,0829.7,5.00,000.00,029.3,027.0,000.0,037.9,030.9,20.2,0000.0,0004.53,0009.16,0003.95
2023-08-11 09:17:00,SystemResetWarning,0829.7,5.00,000.00,029.3,027.2,000.0,037.9,030.9,20.1,0000.0,0004.53,0009.13,0003.95
2023-08-11 09:18:00,SystemResetWarning,0829.7,5.00,000.00,029.3,027.5,000.0,037.9,031.0,20.2,0000.0,0004.53,0008.95,0003.95
2023-08-11 09:19:00,SystemResetWarning,0829.7,5.00,000.00,029.4,027.6,000.0,037.9,031.0,20.1,0000.0,0004.52,0008.96,0003.94
2023-08-11 09:20:00,SystemResetWarning,0829.7,5.00,000.00,029.4,027.8,000.0,037.9,031.0,20.1,0000.0,0004.52,0008.95,0003.94
2023-08-11 09:21:00,SystemResetWarning,0829.7,5.00,000.00,029.4,027.9,000.0,038.0,031.1,20.0,0000.0,0004.51,0008.77,0003.93
2023-08-11 09:22:00,SystemResetWarning,0829.7,4.99,000.00,029.4,028.0,000.0,038.0,031.1,20.1,0000.0,0004.46,0008.68,0003.92
2023-08-11 09:23:00,SystemResetWarning,0829.7,5.00,000.00,029.5,028.1,000.0,038.0,031.2,20.3,0000.0,0004.45,0008.64,0003.91
2023-08-11 09:24:00,SystemResetWarning,0829.7,5.00,000.00,029.5,028.2,000.0,038.0,031.2,20.1,0000.0,0004.44,0008.60,0003.91
2023-08-11 09:25:00,SystemResetWarning,0829.7,5.00,000.00,029.5,028.3,000.0,038.0,031.2,20.0,0000.0,0004.42,0008.57,0003.91
2023-08-11 09:26:00,SystemResetWarning,0829.7,5.01,000.00,029.5,028.3,000.0,038.0,031.2,19.8,0000.0,0004.41,0008.68,0003.90
2023-08-11 09:27:00,SystemResetWarning,0829.7,5.01,000.00,029.6,028.4,000.0,038.1,031.3,19.6,0000.0,0004.36,0008.06,0003.88
2023-08-11 09:28:00,SystemResetWarning,0829.7,5.00,000.00,029.6,028.4,000.0,038.1,031.3,19.6,0000.0,0004.31,0007.35,0003.87
2023-08-11 09:29:00,SystemResetWarning,0829.7,5.00,000.00,029.6,028.4,000.0,038.1,031.3,19.7,0000.0,0004.30,0007.32,0003.85
2023-08-11 09:30:00,SystemResetWarning,0829.7,4.98,000.00,029.6,026.9,000.0,038.0,031.1,19.6,0000.0,0004.32,0007.40,0003.85
2023-08-11 09:31:00,SystemResetWarning,0829.7,5.00,000.00,029.5,025.5,000.0,037.9,030.9,19.7,0000.0,0004.35,0007.53,0003.85
2023-08-11 09:32:00,SystemResetWarning,0829.7,5.01,000.00,029.5,025.5,000.0,037.8,030.6,19.8,0000.0,0004.34,0007.78,0003.85
2023-08-11 09:33:00,SystemResetWarning,0829.7,5.00,000.00,029.3,025.7,000.0,037.9,030.5,19.8,0000.0,0004.32,0008.39,0003.85
2023-08-11 09:34:00,SystemResetWarning,0829.7,4.99,000.00,029.3,026.1,000.0,037.9,030.6,19.7,0000.0,0004.32,0008.33,0003.85
2023-08-11 09:35:00,SystemResetWarning,0829.7,5.00,000.00,029.3,026.5,000.0,037.9,030.7,19.8,0000.0,0004.31,0008.31,0003.85
2023-08-11 09:36:00,SystemResetWarning,0829.7,5.01,000.00,029.3,026.8,000.0,037.9,030.8,19.8,0000.0,0004.29,0008.26,0003.84
2023-08-11 09:37:00,SystemResetWarning,0829.7,4.99,000.00,029.3,027.1,000.0,037.9,030.9,19.8,0000.0,0004.28,0008.16,0003.84
2023-08-11 09:38:00,SystemResetWarning,0829.7,4.99,000.00,029.3,027.4,000.0,037.9,030.9,19.8,0000.0,0004.28,0008.27,0003.83
2023-08-11 09:39:00,SystemResetWarning,0829.7,4.99,000.00,029.3,027.6,000.0,037.9,031.0,19.9,0000.0,0004.31,0008.55,0003.83
2023-08-11 09:40:00,SystemResetWarning,0829.7,5.01,000.00,029.4,027.8,000.0,038.0,031.0,20.0,0000.0,0004.31,0009.01,0003.83
2023-08-11 09:41:00,SystemResetWarning,0829.7,5.01,000.00,029.4,027.9,000.0,038.0,031.1,19.8,0000.0,0004.29,0009.08,0003.81
2023-08-11 09:42:00,SystemResetWarning,0829.7,5.00,000.00,029.4,028.0,000.0,038.0,031.1,19.8,0000.0,0004.29,0009.05,0003.81
2023-08-11 09:43:00,SystemResetWarning,0829.7,5.00,000.00,029.4,028.1,000.0,038.0,031.1,19.8,0000.0,0004.27,0009.01,0003.80
2023-08-11 09:44:00,SystemResetWarning,0829.8,5.01,000.00,029.5,028.2,000.0,038.0,031.2,19.8,0000.0,0004.32,0009.14,0003.79
2023-08-11 09:45:00,SystemResetWarning,0829.7,5.00,000.00,029.5,028.3,000.0,038.0,031.2,19.8,0000.0,0004.33,0009.47,0003.78
2023-08-11 09:46:00,SystemResetWarning,0829.8,4.99,000.00,029.5,028.4,000.0,038.1,031.3,19.8,0000.0,0004.31,0009.97,0003.77
2023-08-11 09:47:00,SystemResetWarning,0829.8,4.99,000.00,029.6,028.4,000.0,038.1,031.3,19.8,0000.0,0004.35,0010.09,0003.79
2023-08-11 09:48:00,SystemResetWarning,0829.8,5.00,000.00,029.6,028.5,000.0,038.1,031.3,19.9,0000.0,0004.38,0010.55,0003.79
2023-08-11 09:49:00,SystemResetWarning,0829.8,5.00,000.00,029.6,028.5,000.0,038.1,031.3,19.9,0000.0,0004.37,0010.89,0003.79
2023-08-11 09:50:00,SystemResetWarning,0829.8,5.01,000.00,029.7,028.4,000.0,038.1,031.3,19.9,0000.0,0004.34,0010.63,0003.79
2023-08-11 09:51:00,SystemResetWarning,0829.8,4.99,000.00,029.6,026.5,000.0,038.0,031.1,19.8,0000.0,0004.31,0010.28,0003.78
2023-08-11 09:52:00,SystemResetWarning,0829.7,5.00,000.00,029.6,025.5,000.0,037.9,030.8,19.8,0000.0,0004.31,0010.24,0003.78
2023-08-11 09:53:00,SystemResetWarning,0829.7,5.02,000.00,029.5,025.6,000.0,037.9,030.7,19.8,0000.0,0004.29,0010.55,0003.77
2023-08-11 09:54:00,SystemResetWarning,0829.7,5.01,000.00,029.4,025.9,000.0,037.9,030.6,19.6,0000.0,0004.31,0010.66,0003.76
2023-08-11 09:55:00,SystemResetWarning,0829.7,5.00,000.00,029.3,026.3,000.0,037.9,030.7,19.7,0000.0,0004.29,0009.86,0003.76
2023-08-11 09:56:00,SystemResetWarning,0829.8,5.00,000.00,029.3,026.6,000.0,037.9,030.8,19.7,0000.0,0004.27,0009.67,0003.76
2023-08-11 09:57:00,SystemResetWarning,0829.8,5.00,000.00,029.3,027.0,000.0,037.9,030.9,19.7,0000.0,0004.25,0009.26,0003.75
2023-08-11 09:58:00,SystemResetWarning,0829.7,5.00,000.00,029.3,027.2,000.0,038.0,030.9,19.7,0000.0,0004.24,0009.27,0003.72
2023-08-11 09:59:00,SystemResetWarning,0829.7,5.00,000.00,029.4,027.4,000.0,038.0,031.0,19.7,0000.0,0004.18,0008.84,0003.70
